Погода в Крутом

Россия / Липецкая область     53°01′04″N   39°48′56″E
темп.,
°C
ветер,
м/с
пор.,
м/с
влажн.,
%
обл.,
%
осадки,
мм/ч
давл.,
гПа
погр.,
м
17 апреля, сб
сб1700:00+10юз11665 0.0 101811
03:00+9св226853 0.0 101813
06:00+9св358097 0.0 101790
09:00+14вюв5870100 0.6 1017709
12:00+13ююв3472100 0.4 1017587
15:00+12ююз5672100 0.8 1018617
18:00+9зюз3385100 1.7 1017368
21:00+8ююз2486100 4.1 1018274
18 апреля, вс
вс1800:00+7юз238984 0.0 101869
03:00+6ю11910 0.0 101810
06:00+5юв22965 0.0 101936
09:00+9ю347071 0.0 1019544
12:00+11ю3452100 0.1 10191591
15:00+12ю3453100 0.3 10191409
18:00+11ююв235897 0.3 1019611
21:00+9в2271100 0.3 101934
19 апреля, пн
пн1900:00+8вюв2276100 0.0 101941
03:00+7в2275100 0.0 101917
06:00+6св4795100 0.3 1019233
09:00+10всв5676100 0.6 1018492
12:00+11всв557096 2.4 1018898
15:00+11всв7773100 5.7 1018955
18:00+8всв7118395 0.5 1018656
21:00+6в61187100 0.8 1020558
20 апреля, вт
вт2000:00+5в5119257 0.1 1019475
03:00+5в5119561 0.1 1019376
06:00+6в51196100 0.2 1018460
09:00+7в61291100 0.7 1018630
12:00+6в71490100 0.7 1018677
15:00+6в81687100 0.8 1014887
18:00+6в91990100 4.0 10111051
21:00+7в112391100 19.3 10071296
21 апреля, ср
ср2100:00+7вюв102191100 5.9 10051340
03:00+9юв91891100 5.9 1003891
06:00+8ююв81688100 1.6 10031275
09:00+8ююв91589100 2.2 10041193
12:00+7ю81383100 0.7 10071199
15:00+8ююз81383100 0.9 10101427
18:00+7юз61282100 0.1 1014904
21:00+7юз4980100 0.1 1017445